Theta_e
278 278 278 278 279 279 279 279 276 272 274 277 277 281 280 280 280 280 280 282 284 285 286 287 288 289 290 292 293 294 296 298 299 300 301 302 304 306
278 278 278 277 277 277 277 277 276 273 270 275 276 277 278 278 279 278 278 280 281 282 284 285 286 287 289 290 291 293 294 296 297 298 299 301 302 303
277 277 276 276 274 274 274 274 274 274 270 273 275 275 275 275 276 276 277 276 277 280 282 284 285 287 288 288 289 291 292 294 295 296 297 299 300 302
275 275 273 274 272 272 272 272 272 272 271 269 272 273 273 274 274 274 275 277 277 279 283 285 285 285 286 287 288 289 290 292 293 294 296 297 298 300
275 274 272 272 270 270 270 270 271 271 271 270 269 272 272 274 273 275 276 277 278 281 282 282 283 284 285 286 287 287 288 289 290 291 292 294 295 296
275 274 272 271 271 270 270 270 270 269 269 269 269 270 272 274 275 274 274 276 276 278 280 280 282 282 283 284 285 285 286 288 289 291 292 292 292 294
272 272 272 272 274 273 270 269 269 267 267 267 269 271 272 273 272 274 273 274 275 276 276 277 277 277 278 281 281 282 284 285 287 288 289 290 291 294
271 271 272 273 274 276 276 275 272 266 266 267 271 272 272 273 274 273 273 272 270 277 275 275 277 276 277 278 281 283 284 285 286 287 289 290 291 292
271 271 272 272 272 273 276 278 278 279 279 275 272 273 273 274 274 273 273 273 273 276 275 272 277 276 278 279 282 283 284 285 286 287 287 290 291 291
272 272 272 272 272 272 272 272 273 273 274 274 274 274 275 276 276 276 275 272 272 273 274 269 273 273 275 277 281 283 284 285 285 286 287 289 291 291
273 273 272 272 274 276 273 270 271 273 277 279 280 280 280 280 279 273 267 266 266 268 272 270 270 271 274 275 277 282 283 285 285 286 288 289 290 290
272 273 274 273 275 277 273 268 267 272 274 269 273 274 273 272 274 272 268 265 265 265 272 269 269 270 269 273 275 278 279 283 284 285 286 287 289 287
271 271 273 277 277 278 277 273 273 273 269 265 266 267 268 269 269 270 270 269 267 267 271 271 269 269 269 268 271 273 276 279 280 281 285 286 286 287
270 271 272 277 277 277 277 276 276 274 260 259 260 263 265 267 269 270 271 271 271 270 272 272 269 269 268 267 267 271 273 275 278 279 280 283 285 287
272 273 275 276 277 275 273 272 270 264 260 258 261 264 267 268 270 269 270 270 270 271 273 273 271 271 270 268 267 269 272 275 277 278 279 280 281 282
275 275 274 271 271 270 268 268 266 266 265 263 263 265 267 266 266 267 266 267 266 267 271 273 273 271 268 268 268 266 269 268 272 274 277 279 281 282
267 266 264 265 264 265 264 264 264 265 264 264 263 263 264 264 265 266 266 265 264 264 267 270 271 271 270 269 266 267 267 269 271 273 276 278 280 281
265 263 263 263 263 263 262 262 262 263 263 263 262 262 262 263 263 264 264 264 263 265 266 267 268 267 267 267 271 267 268 268 270 272 275 275 278 281
264 263 263 262 262 262 261 261 260 261 262 262 261 261 261 261 261 262 263 263 264 265 266 267 266 265 262 260 265 272 267 268 269 269 276 277 278 280
263 262 260 259 259 259 259 259 259 259 259 260 259 258 258 259 260 261 262 262 263 264 264 266 266 265 263 262 262 266 271 268 268 268 271 275 283 285
260 259 259 258 258 257 256 255 253 252 255 255 253 255 258 258 260 261 262 263 263 263 262 264 266 269 268 267 264 264 267 272 272 269 270 272 273 281
259 258 256 256 255 254 251 249 247 250 253 253 253 256 258 259 260 261 262 263 262 263 263 265 267 267 266 264 263 263 264 267 271 273 275 276 275 275
258 257 255 254 252 249 248 247 248 251 253 251 253 256 258 258 260 261 263 263 262 262 263 263 265 266 265 264 264 263 263 264 266 267 270 275 279 280
Wind_Speed
6 6 5 4 4 3 3 3 4 3 3 3 3 1 5 7 11 10 10 19 25 26 27 28 29 29 29 29 30 30 32 33 31 30 31 33 34 35
5 7 5 4 5 4 3 2 2 3 3 2 3 2 5 6 9 10 12 21 22 25 26 26 28 29 30 30 31 31 31 32 32 33 33 33 33 35
6 7 6 6 5 5 4 3 4 4 4 3 2 1 3 7 9 8 9 10 9 21 25 26 27 29 30 31 32 32 31 31 32 33 33 34 35 37
11 9 9 7 8 6 5 5 4 4 3 5 3 1 5 7 9 11 9 8 10 16 23 26 27 28 29 31 31 32 32 31 31 32 32 33 34 36
12 11 10 8 7 5 5 4 4 4 3 5 6 2 5 6 10 9 9 9 8 19 24 26 27 28 29 30 32 32 32 32 34 34 33 34 34 35
10 8 10 10 9 8 7 5 3 4 4 6 7 8 6 8 8 11 12 9 11 11 17 21 25 26 29 30 30 31 31 32 32 32 30 30 32 34
9 10 9 10 15 12 6 6 5 5 4 5 8 8 7 8 11 11 13 14 12 13 12 10 10 11 12 20 25 31 33 34 34 35 34 32 32 32
11 9 8 10 12 14 14 15 13 7 7 3 8 10 10 10 9 11 13 14 15 8 10 15 12 15 14 13 26 32 34 35 36 36 35 34 34 34
12 11 9 8 10 9 14 15 14 15 15 10 11 11 13 11 12 14 14 15 15 14 18 20 13 16 14 15 31 34 35 37 38 37 37 35 35 33
13 12 10 10 10 10 9 7 8 8 10 9 11 13 13 11 12 13 14 17 16 14 13 18 13 17 15 15 35 37 39 38 38 37 36 35 36 36
10 10 10 9 14 17 10 7 7 9 12 18 19 23 26 25 21 13 11 11 15 14 11 13 12 17 14 16 17 32 36 37 37 38 36 35 37 36
10 11 15 12 16 16 6 5 5 8 5 4 8 9 12 14 22 12 8 11 12 13 2 7 14 15 19 16 15 11 12 27 34 36 35 35 36 19
10 9 8 20 17 14 10 6 6 5 4 2 4 7 7 9 9 10 11 11 13 16 18 14 15 16 14 22 18 15 15 16 16 20 32 35 35 30
13 9 9 19 16 13 9 4 10 5 2 2 2 6 7 8 9 10 14 15 14 21 22 18 18 17 18 21 23 14 14 15 16 16 14 23 32 34
8 14 19 18 14 5 3 5 1 2 0 2 5 7 8 9 12 13 15 18 19 21 18 22 17 19 16 20 24 19 22 13 12 15 15 15 15 13
16 10 11 10 9 8 4 4 2 2 3 5 6 7 8 8 10 10 12 13 15 15 16 19 20 19 18 18 20 23 16 20 15 18 18 15 16 15
11 6 5 4 5 5 3 2 2 3 4 5 6 7 7 8 10 10 11 13 14 16 16 13 15 19 19 23 22 19 19 20 17 18 19 18 17 16
7 6 5 6 6 5 4 3 2 3 5 5 5 6 7 8 11 11 11 12 15 16 17 16 15 16 17 19 27 20 18 20 17 19 20 21 18 16
7 8 7 7 6 6 5 4 2 2 5 5 6 6 7 8 11 12 13 13 15 16 17 16 16 15 20 25 12 26 20 17 18 20 18 20 20 18
5 8 8 7 6 5 4 3 1 3 5 6 6 5 7 8 10 12 13 15 16 19 18 16 15 15 17 22 27 17 29 20 17 18 18 17 17 28
6 5 5 6 6 5 4 2 3 3 5 6 5 3 7 8 11 12 14 20 22 17 20 19 17 27 18 19 22 23 14 28 30 21 20 18 18 14
8 7 6 5 4 4 3 2 3 3 5 6 4 5 7 8 12 13 13 16 17 17 19 19 19 16 16 17 22 26 22 15 22 35 40 36 15 18
8 7 6 5 4 3 3 3 4 4 6 5 4 6 8 9 11 12 14 16 16 18 19 20 18 16 17 17 23 21 28 25 16 16 18 33 39 43
Wind_Direction
168 167 159 154 149 152 146 156 156 201 244 236 276 358 9 3 337 334 328 326 327 327 327 325 323 320 317 313 308 303 299 296 291 286 284 284 286 284
169 165 156 140 132 130 145 161 194 173 238 246 238 13 1 330 318 327 318 322 321 319 318 316 314 311 309 306 301 297 294 292 291 289 287 284 278 275
165 164 161 151 152 146 156 165 186 192 243 263 236 25 307 320 311 306 302 302 299 306 305 307 306 304 303 303 300 296 293 290 288 286 285 281 278 277
174 169 175 169 161 158 163 180 194 209 231 282 256 255 291 307 296 296 302 296 293 293 296 300 302 299 297 297 297 295 293 292 288 285 283 281 280 276
176 179 174 168 163 160 168 183 189 231 239 268 290 286 283 300 303 301 304 296 288 298 298 296 296 296 293 291 292 291 289 286 282 277 273 274 272 271
174 177 170 177 164 166 184 176 183 226 253 276 285 291 299 307 295 317 315 306 304 299 292 291 291 290 288 288 288 287 285 281 277 279 276 278 278 271
169 172 180 175 179 177 166 172 188 214 232 259 283 287 305 320 321 318 307 310 308 296 296 295 289 285 281 282 280 281 280 280 277 274 275 277 276 274
175 172 182 185 193 191 198 199 204 204 225 241 274 290 303 305 311 309 305 308 313 287 298 297 289 284 281 274 273 275 276 276 277 275 272 272 273 270
172 172 181 188 189 201 217 225 240 255 264 271 276 283 295 300 300 296 295 294 293 300 307 296 301 284 282 277 279 278 276 276 276 274 272 271 270 270
170 170 181 177 186 190 199 210 233 243 256 267 269 273 271 273 282 296 307 302 291 290 291 290 297 283 290 285 281 278 276 273 272 271 271 270 269 269
167 170 179 177 191 197 193 208 236 251 257 277 286 294 298 301 305 308 297 300 294 289 289 290 289 289 291 287 275 272 272 271 271 272 272 270 268 270
170 179 188 182 192 203 196 181 229 258 268 277 282 294 306 298 296 285 282 276 285 297 208 302 297 298 299 287 274 296 277 268 268 270 269 269 266 260
168 177 182 193 192 201 213 187 218 234 281 31 299 294 297 290 283 275 268 267 275 267 281 288 292 289 276 289 283 277 273 272 267 267 270 271 272 271
170 169 172 185 189 196 203 257 277 304 56 24 293 288 284 282 282 280 276 272 269 274 284 278 280 284 288 286 285 283 271 268 266 265 260 261 266 266
159 166 173 177 185 186 183 221 102 92 138 253 258 270 276 283 288 287 282 278 276 272 269 277 274 278 272 277 285 284 291 281 280 269 261 255 256 254
167 166 161 131 141 158 145 150 179 211 246 253 263 274 282 289 286 287 286 287 286 282 269 267 272 273 276 271 276 281 274 274 270 262 271 261 252 249
126 121 123 134 157 162 149 166 194 213 237 250 265 277 284 288 288 294 289 290 283 291 291 288 278 273 270 274 275 272 276 271 267 269 266 254 247 244
147 146 153 155 172 167 176 200 190 246 257 264 265 272 285 295 298 300 291 285 291 290 294 297 298 289 279 262 258 274 268 270 267 259 256 254 255 241
159 156 160 167 167 172 177 182 172 244 272 270 271 282 290 290 300 297 295 297 292 295 295 297 296 293 293 288 277 259 276 272 269 276 253 242 247 246
140 161 165 153 162 170 171 177 205 263 270 272 268 280 289 284 294 295 296 296 299 301 297 296 294 291 286 288 293 277 263 271 266 270 275 280 262 242
145 165 155 156 166 160 160 170 196 230 265 269 255 276 278 285 288 291 296 296 300 299 297 298 295 293 285 284 281 283 274 260 258 256 263 265 267 262
154 171 157 161 163 145 136 179 229 229 262 252 255 268 277 277 285 295 290 303 300 297 294 295 301 298 292 284 284 288 289 278 262 262 257 255 253 247
159 154 161 154 153 156 157 196 221 247 254 252 263 278 280 286 286 285 299 301 300 300 301 302 303 299 295 291 290 289 286 288 283 265 256 253 251 251